Weather History for Banff, AB

Change the Weather History Date:

Saturday, October 6, 2012

  Actual Average Record
Temperature  
Mean Temperature 42 °F -  
Max Temperature 58 °F - - ()
Min Temperature 25 °F - - ()
Degree Days  
Heating Degree Days 24    
Moisture  
Dew Point 23 °F    
Average Humidity 56    
Maximum Humidity 83    
Minimum Humidity 27    
Precipitation  
Precipitation 0.00 in - - ()
Sea Level Pressure  
Sea Level Pressure 30.34 in    
Wind  
Wind Speed 3 mph ()    
Max Wind Speed 6 mph    
Max Gust Speed -    
T = Trace of Precipitation, MM = Missing Value Source: Averaged Metar Reports

Daily Weather History Graph

Daily Weather History Graph

Search for Another Location

Airport:

Trip Planner

Search our weather history database for the weather conditions in past years. The results will help you decide how hot, cold, wet, or windy it might be!

Date:

Astronomy

Oct. 06, 2012 Rise Set
Actual Time 7:51 AM MDT 7:07 PM MDT
Civil Twilight 7:18 AM MDT 7:40 PM MDT
Nautical Twilight 6:40 AM MDT 8:18 PM MDT
Astronomical Twilight 6:01 AM MDT 8:57 PM MDT
Moon 10:56 PM MDT (10/6) 2:20 PM MDT (10/6)
Length of Visible Light 12h 21m
Length of Day
11h 15m
Waning Gibbous, 65% of the Moon is Illuminated
Oct 6
Waning Gibbous
Oct 8
Last Quarter
Oct 15
New
Oct 21
First Quarter
Oct 29
Full

Hourly Weather History & Observations

Time (MDT) Temp. Windchill Dew Point Humidity Pressure Visibility Wind Dir Wind Speed Gust Speed Precip Events Conditions
12:00 AM 25.9 °F - 19.8 °F 78% 30.42 in - WNW 2.3 mph - N/A   Unknown
1:00 AM 29.7 °F 26.1 °F 21.9 °F 73% 30.40 in - SW 3.5 mph - N/A   Unknown
2:00 AM 31.3 °F - 20.8 °F 65% 30.39 in - WSW 1.2 mph - N/A   Unknown
3:00 AM 31.6 °F 28.3 °F 20.1 °F 62% 30.38 in - SW 3.5 mph - N/A   Unknown
4:00 AM 31.5 °F 28.1 °F 20.5 °F 64% 30.38 in - SW 3.5 mph - N/A   Unknown
5:00 AM 31.6 °F 28.3 °F 20.7 °F 64% 30.39 in - SSW 3.5 mph - N/A   Unknown
6:00 AM 32.9 °F 29.8 °F 21.2 °F 62% 30.40 in - SSW 3.5 mph - N/A   Unknown
7:00 AM 32.9 °F 29.8 °F 21.4 °F 63% 30.43 in - SSW 3.5 mph - N/A   Unknown
8:00 AM 33.3 °F 30.2 °F 21.6 °F 62% 30.44 in - SSW 3.5 mph - N/A   Unknown
9:00 AM 34.5 °F 31.6 °F 21.6 °F 59% 30.45 in - SW 3.5 mph - N/A   Unknown
10:00 AM 37.6 °F 34.0 °F 21.2 °F 52% 30.44 in - SW 4.6 mph - N/A   Unknown
11:00 AM 40.6 °F 38.6 °F 20.5 °F 45% 30.42 in - SW 3.5 mph - N/A   Unknown
12:00 PM 43.9 °F 42.3 °F 21.4 °F 41% 30.38 in - WSW 3.5 mph - N/A   Unknown
1:00 PM 48.4 °F - 20.8 °F 34% 30.35 in - SW 5.8 mph - N/A   Unknown
2:00 PM 49.8 °F - 22.1 °F 34% 30.32 in - SSW 3.5 mph - N/A   Unknown
3:00 PM 55.4 °F - 23.5 °F 29% 30.27 in - SSE 2.3 mph - N/A   Unknown
4:00 PM 57.6 °F - 23.9 °F 27% 30.25 in - SE 3.5 mph - N/A   Unknown
5:00 PM 58.3 °F - 25.5 °F 28% 30.22 in - South 3.5 mph - N/A   Unknown
6:00 PM 52.9 °F - 25.9 °F 35% 30.22 in - NNW 3.5 mph - N/A   Unknown
7:00 PM 44.1 °F - 28.8 °F 55% 30.25 in - NE 1.2 mph - N/A   Unknown
8:00 PM 36.7 °F - 27.3 °F 69% 30.27 in - East 1.2 mph - N/A   Unknown
9:00 PM 31.5 °F - 26.6 °F 82% 30.27 in - North 1.2 mph - N/A   Unknown
10:00 PM 31.1 °F - 26.6 °F 83% 30.27 in - South 1.2 mph - N/A   Unknown
11:00 PM 30.9 °F - 26.2 °F 83% 30.25 in - South 1.2 mph - N/A   Unknown